Location: Mountain Grove
(34.0887°N, 86.6172°W)
Time: 21:45:04
(UTC+00:00)

Cosmos 676 Rocket - Pass Details

Date: 14 July 2020
Orbit: 753 x 785 km, 74.0° (Epoch: 08 August)

Event Time Altitude Azimuth Distance (km) Brightness Sun altitude
Exits shadow 07:57:51 67° 306° (NW) 830 4.0 -26.8°
Drops below altitude 10° 08:02:53 10° 12° (NNE) 2,325 7.4 -26.3°
Sets 08:05:18 0° 15° (NNE) 3,261 8.4 -26.0°
